STARLINK-30873, 58249

Orbit data source: Space-Track

STARLINK-30873, 58249 is a payload satellite owned by SpaceX/Seattle (US) in LEO that was launched on Wed, 08 Nov 2023 UTC via an FALCON 9 launch vehicle from the Air Force Eastern Test Range (AFETR). Payload-class satellites include a variety of spacecraft equipped with specific instruments for various scientific and technological missions. These include communications satellites like Starlink; space stations such as the ISS; scientific satellites like the Hubble; Earth observation satellites from companies like Planet Labs, Umbra, and HawkEye 360; GPS; miniature CubeSats for education and research; and military/defense satellites.

Loading next visibility...
Identifier
58249, 2023-171V
Orbit
LEO
Country
Flag of USUS
Related business
Manufacturer
SpaceX/Seattle
Mission
Operational Commercial Communications
Bus & Motor
STARLINK V2M, Unknown motor
Mass
730 kg wet, ~700 kg dry
Launch date (UTC)
2023-11-08 (3 years ago)
Launch vehicle
FALCON 9
Launch site
Air Force Eastern Test Range (AFETR)
Object type
Payload
Rocket body
Debris
Shape & HBR
Box + 2 Pan, 17.7 m
Radar Cross Section
33.884 m², Large (>1 m²)

Expand to show TLE details & history
Last TLE update: 2 days ago

TLE from 2 days ago
0 STARLINK-30873
1 58249U 23171V   26171.40382769 -.00001467  00000-0 -43829-4 0  9998
2 58249  43.0035  65.1230 0001211 268.6477  91.4236 15.27561712145447
Epoch: 2026-06-20T09:41Z
TLE epoch observation values (Epoch: 2026-06-20T09:41:30.712Z)
Latitude
-0.00001°
Longitude
11.12608°
Altitude
482.9 km
Speed
7.626 km/s
True Right ascension
04h 20m 29s
True Declination
0° 00' 00"
Sunlit
Object was in daylight at epoch
Visualization orbit readout
Latitude
Unknown
Longitude
Unknown
Altitude
Unknown
Speed
Unknown
Apparent Right ascension
Unknown
Apparent Declination
Unknown
Sunlit
N/A
Visualization observer readout
Local Sidereal Time
21:25:46
Azimuth
Unknown
Elevation
Unknown
Doppler factor
Unknown
Orbital elements
Apogee altitude
485.88 km
Perigee altitude
484.217 km
Semi-major axis
6,863.185 km
Eccentricity
0.00012
Inclination
43.0035°
RAAN
65.123°
Arg. of periapsis
268.6477°
True anomaly
91.43747°
Mean anomaly
91.4236°
Eccentric anomaly
91.43054°
Mean motion
3.81728 °/min
Orbital period
94.31 mins
BSTAR
-0.000043829
Loading maneuver chart data...
Computing Atmospheric mass density...
Loading historical data...
Loading historical data...
Loading historical data...
Loading historical data...
Loading historical data...
Loading historical data...
Loading historical data...

Documentation

Showing up to 5 results
|